Flag for Ukraine Weather past 2 weeks in Chernobyl, Ukraine

Now
68 °F

Mild.


Feels Like: 68 °F
Forecast: 58 / 77 °F
Wind: 3 mph from North

Location: Hostomel

Current Time: Sep 4, 2015 at 12:59:27 AM

Latest Report: Sep 4, 2015 at 12:00 AM


Visibility: 6 mi

Pressure: 29.92 "Hg

Humidity: 78%

Dew point: 61 °F

Location of ChernobylLocation

Historic Weather in Chernobyl — Graph

°F

Chernobyl temperature yesterday

Maximum temperature yesterday: 82 °F (at 3:00 PM)
Minimum temperature yesterday: 66 °F (at 7:00 AM)
Average temperature yesterday: 74 °F

Past Weeks' High & Low Weather Summary

 TemperatureHumidityPressure
High97 °F (Sep 2, 2:00 PM)94% (Aug 27, 5:00 AM)30.33 "Hg (Aug 27, 5:00 AM)
Low50 °F (Aug 20, 6:00 AM)20% (Sep 2, 4:30 PM)29.74 "Hg (Sep 2, 3:00 AM)
Average72 °F50%30.08 "Hg
* Reported Aug 19 11:00 PM — Sep 3 11:00 PM, Chernobyl, Weather by CustomWeather, © 2015

Note: Actual official high and low records may vary slightly from our data, if they occured in-between our weather recording intervals... More about our weather records

Advertising

Chernobyl weather history for previous 24 hours

 ConditionsComfort  
Time TempWeatherWind HumidityBarometerVisibility
11:00 PM
Thu, Sep 3
68 °FMild.3 mph78%29.92 "Hg5 mi
10:00 PM70 °FMild.6 mph78%29.92 "Hg5 mi
9:00 PM72 °FMild.3 mph73%29.92 "Hg6 mi
8:00 PM70 °FMild.3 mph78%29.89 "Hg6 mi
7:00 PM75 °FMild.3 mph65%29.89 "Hg6 mi
6:00 PM81 °FWarm.3 mph51%29.86 "Hg6 mi
5:00 PM81 °FSunny.8 mph48%29.86 "Hg10 mi
4:30 PM82 °FPassing clouds.6 mph48%29.86 "HgN/A
4:00 PM82 °FPassing clouds.8 mph45%29.86 "HgN/A
3:30 PM82 °FPassing clouds.8 mph48%29.86 "HgN/A
3:00 PM82 °FPassing clouds.6 mph45%29.86 "HgN/A
2:30 PM81 °FSunny.6 mph45%29.89 "Hg10 mi
2:00 PM77 °FPassing clouds.3 mph54%29.89 "HgN/A
1:30 PM77 °FPassing clouds.3 mph57%29.89 "HgN/A
1:00 PM75 °FClear.6 mph61%29.89 "Hg6 mi
12:30 PM72 °FClear.6 mph73%29.89 "Hg5 mi
12:00 PM70 °FBroken clouds.3 mph78%29.89 "Hg4 mi
11:30 AM68 °FSprinkles. Broken clouds.3 mph88%29.89 "Hg4 mi
11:00 AM68 °FThunderstorms. Broken clouds.10 mph83%29.92 "Hg4 mi
10:30 AM70 °FPartly sunny.17 mph73%29.95 "Hg3 mi
10:00 AM70 °FPartly sunny.15 mph73%29.92 "Hg5 mi
9:30 AM72 °FPartly sunny.15 mph69%29.89 "Hg5 mi
9:00 AM70 °FPartly sunny.15 mph73%29.89 "Hg5 mi
8:00 AM68 °FClear.13 mph78%29.86 "Hg3 mi
7:00 AM66 °FClear.8 mph83%29.83 "Hg1 mi
6:00 AM68 °FMild.10 mph78%29.83 "Hg1 mi
5:00 AM70 °FMild.10 mph73%29.83 "Hg1 mi
4:00 AM70 °FMild.10 mph69%29.83 "Hg2 mi
3:00 AM72 °FMild.10 mph65%29.80 "Hg2 mi
2:00 AM73 °FMild.8 mph53%29.80 "Hg3 mi
1:00 AM75 °FMild.8 mph44%29.80 "Hg4 mi
12:00 AM79 °FPleasantly warm.10 mph39%29.80 "Hg5 mi
Weather by CustomWeather, © 2015

See weather overviewHow to use our weather pages